FW0772 Weather Reports


time (UTC)temp
C
wind
direction
speed
KPH
gust
KPH
rain 1hr
cm
rain 24hr
cm
rain mn
cm
humidity
%
barometer
mb
20230128011524 0 0 0.0 0.0 0.00 0.05 0.00 76 1027.8
20230128010023 1 0 0.0 3.2 0.00 0.05 0.00 76 1027.8
20230128004528 1 360 0.0 4.8 0.00 0.08 0.00 75 1027.8
20230128003030 1 53 0.0 3.2 0.00 0.08 0.00 74 1027.9
20230128001525 1 0 0.0 6.4 0.00 0.08 0.00 74 1027.8
20230128000026 1 0 1.6 11.3 0.00 0.08 0.00 73 1027.8
20230127234528 1 108 3.2 6.4 0.00 0.08 0.00 74 1027.9
20230127233027 1 84 1.6 8.0 0.00 0.08 0.00 74 1027.7
20230127231521 1 0 1.6 6.4 0.00 0.08 0.00 74 1027.8
20230127230022 1 0 0.0 4.8 0.00 0.08 0.00 74 1027.7
20230127224523 1 96 1.6 6.4 0.00 0.08 0.08 74 1027.8
20230127223027 1 0 0.0 3.2 0.00 0.08 0.08 74 1027.9
20230127221523 1 57 0.0 4.8 0.00 0.08 0.08 74 1028.1
20230127220021 1 59 1.6 6.4 0.00 0.08 0.08 74 1028.1
20230127214527 1 54 0.0 4.8 0.00 0.08 0.08 74 1028.1
20230127213023 1 78 0.0 4.8 0.00 0.08 0.08 74 1028.1
20230127211527 1 141 1.6 6.4 0.00 0.08 0.08 74 1028.2
20230127210022 1 77 0.0 9.7 0.00 0.08 0.08 74 1028.2
20230127204523 1 68 1.6 9.7 0.00 0.08 0.08 74 1028.3
20230127203021 1 119 1.6 11.3 0.00 0.08 0.08 75 1028.2
20230127201518 1 86 0.0 4.8 0.00 0.08 0.08 75 1028.2
20230127200022 1 0 0.0 11.3 0.00 0.08 0.08 74 1028.2
20230127194522 1 69 1.6 6.4 0.00 0.08 0.08 74 1028.1
20230127193026 1 118 3.2 6.4 0.00 0.08 0.08 75 1028.1
20230127191522 1 0 0.0 6.4 0.00 0.08 0.08 76 1028.0
20230127190028 1 0 1.6 6.4 0.00 0.08 0.08 76 1027.8
20230127184531 1 68 0.0 9.7 0.00 0.08 0.08 77 1027.8
20230127183035 1 0 1.6 6.4 0.00 0.08 0.08 79 1027.7
20230127181537 1 27 0.0 4.8 0.00 0.08 0.08 79 1027.6
20230127180034 1 36 1.6 6.4 0.00 0.08 0.08 80 1027.6
20230127174521 0 360 0.0 4.8 0.00 0.08 0.08 80 1027.3
20230127173031 0 351 0.0 4.8 0.00 0.08 0.08 80 1027.5
20230127171524 1 0 0.0 4.8 0.00 0.08 0.08 78 1027.3
20230127170021 1 0 0.0 12.9 0.00 0.08 0.08 78 1027.3
20230127164523 1 0 1.6 8.0 0.00 0.08 0.08 78 1027.1
20230127163024 1 0 0.0 6.4 0.00 0.08 0.08 78 1027.0
20230127161518 1 59 0.0 6.4 0.00 0.08 0.08 78 1027.1
20230127160032 1 352 0.0 6.4 0.00 0.08 0.08 78 1026.9
20230127154522 2 0 0.0 3.2 0.00 0.08 0.08 77 1026.8
20230127153018 2 14 0.0 4.8 0.00 0.08 0.08 76 1026.8
20230127151538 2 63 1.6 9.7 0.00 0.08 0.08 74 1026.7
20230127150024 3 106 1.6 9.7 0.00 0.08 0.08 74 1026.6
20230127144524 3 57 1.6 11.3 0.00 0.08 0.08 72 1026.5
20230127143045 3 34 3.2 8.0 0.00 0.08 0.08 72 1026.5
20230127141523 3 40 3.2 11.3 0.00 0.08 0.08 72 1026.3
20230127140025 3 26 1.6 12.9 0.00 0.08 0.08 72 1026.2
20230127134520 4 21 4.8 14.5 0.00 0.08 0.08 69 1026.2
20230127133022 4 9 4.8 16.1 0.00 0.08 0.08 70 1026.1
20230127131524 4 337 3.2 9.7 0.00 0.08 0.08 73 1026.1
20230127130023 3 360 4.8 12.9 0.00 0.08 0.08 74 1026.1
20230127124520 4 41 4.8 17.7 0.00 0.08 0.08 73 1026.1
20230127123029 4 31 4.8 16.1 0.00 0.08 0.08 73 1026.2
20230127121523 5 80 4.8 11.3 0.00 0.08 0.08 73 1026.3
20230127120023 5 28 3.2 11.3 0.00 0.08 0.08 76 1026.3
20230127114525 4 336 4.8 17.7 0.00 0.08 0.08 77 1026.4
20230127113035 3 15 4.8 12.9 0.00 0.08 0.08 79 1026.4
20230127111530 3 44 3.2 12.9 0.00 0.08 0.08 80 1026.4
20230127110021 4 36 4.8 17.7 0.00 0.08 0.08 80 1026.2
20230127104523 4 87 6.4 12.9 0.00 0.08 0.08 83 1026.1
20230127103026 3 36 8.0 19.3 0.00 0.08 0.08 85 1026.0
20230127101531 3 127 3.2 16.1 0.00 0.08 0.08 88 1026.0
20230127100026 3 352 3.2 16.1 0.00 0.08 0.08 90 1026.0
20230127094518 3 80 4.8 16.1 0.00 0.08 0.08 93 1026.1
20230127093038 2 5 3.2 12.9 0.00 0.08 0.08 95 1026.0
20230127091526 2 101 3.2 12.9 0.00 0.08 0.08 96 1026.0
20230127090028 2 12 3.2 12.9 0.00 0.08 0.08 97 1025.9
20230127084521 2 74 4.8 12.9 0.00 0.08 0.08 98 1025.8
20230127083023 2 36 3.2 16.1 0.00 0.08 0.08 98 1025.6
20230127081523 2 86 4.8 19.3 0.00 0.08 0.08 98 1025.5
20230127080029 2 336 1.6 11.3 0.00 0.08 0.08 98 1025.2
20230127074526 2 22 1.6 8.0 0.00 0.08 0.08 98 1025.3
20230127073023 2 19 3.2 6.4 0.00 0.08 0.08 98 1025.1
20230127071525 2 47 3.2 8.0 0.00 0.08 0.08 98 1025.0
20230127070030 2 40 1.6 6.4 0.00 0.08 0.08 98 1024.7
20230127064525 2 38 1.6 8.0 0.00 0.08 0.08 98 1024.5
20230127063022 2 345 1.6 6.4 0.00 0.08 0.08 98 1024.4
20230127061522 2 11 1.6 11.3 0.00 0.08 0.08 98 1024.2
20230127060020 2 56 1.6 8.0 0.00 0.08 0.08 98 1023.8
20230127054524 2 75 1.6 6.4 0.00 0.08 0.08 98 1023.8
20230127053024 2 74 1.6 6.4 0.00 0.08 0.08 98 1023.6
20230127051523 2 48 3.2 9.7 0.00 0.08 0.08 98 1023.5
20230127050026 2 42 3.2 9.7 0.00 0.08 0.08 98 1023.3
20230127044519 2 0 0.0 3.2 0.00 0.08 0.08 98 1023.2
20230127043031 2 0 0.0 3.2 0.00 0.05 0.05 98 1023.1
20230127041534 2 0 0.0 3.2 0.03 0.05 0.05 98 1023.2
20230127040021 1 0 0.0 4.8 0.03 0.05 0.05 98 1023.1
20230127034529 1 0 0.0 1.6 0.03 0.05 0.05 98 1023.0
20230127033028 0 0 0.0 1.6 0.00 0.03 0.03 98 1022.7
20230127031540 0 0 0.0 0.0 0.00 0.00 0.00 97 1022.9
20230127030022 0 0 0.0 1.6 0.00 0.00 0.00 98 1022.7
20230127024519 0 0 0.0 0.0 0.00 0.00 0.00 97 1022.7
20230127023021 0 0 0.0 0.0 0.00 0.00 0.00 97 1022.6
20230127021523 0 0 0.0 0.0 0.00 0.00 0.00 97 1022.6
20230127020024 0 0 0.0 0.0 0.00 0.00 0.00 97 1022.5
20230127014524 0 0 0.0 0.0 0.00 0.00 0.00 97 1022.5
20230127013021 0 0 0.0 0.0 0.00 0.00 0.00 97 1022.5